World > North America > United States > Missouri

Hourly Lake Tapawingo, MO Regional Weather

Feedback E-mail the Weather

Quick WX

Lake Tapawingo, MO Weather Maps

°F °C°F °C
Lake Tapawingo Weather Map
UTC Time: 6/30/2022, 16:40
Your Time:

Lake Tapawingo, MO Regional Weather

Expires:202206301700;;447060
ASUS43 KEAX 301615
RWREAX

WEATHER ROUNDUP FOR EASTERN KANSAS AND NORTHWEST MISSOURI
NATIONAL WEATHER SERVICE KANSAS CITY/PLEASANT HILL MO
1100 AM CDT THU JUN 30 2022


KSZ040-057-103>105-MOZ028-029-037-043-301700-
...KANSAS CITY METROPOLITAN AREA...
  
CITY           SKY/WX    TMP DP  RH WIND       PRES   REMARKS
K.C. INTL      MOSUNNY   82  61  48 S16       30.02F                  
K.C. DOWNTOWN  SUNNY     84  58  40 S14       30.02F                  
LEES SUMMIT    SUNNY     84  58  40 S15       30.05F                  
OLATHE - IXD   SUNNY     84  59  42 S15G24    30.05F                  
OLATHE - OJC   SUNNY     84  57  39 S13       30.04F                  
LAWRENCE       SUNNY     85  60  42 S12G23    30.02F                  

$$
 

SKY/WX - Weather  TMP - Temperature  DP - Dew Point  RH - Humidity
WIND - Wind Direction/Speed PRES - Barometric Pressure VSB - Visibility
WCI - Wind Chill Index E13G22 Wind - East Wind 13 mph/Gusts of 22 mph

Trending Headlines

Lake Tapawingo Radar Loop



Lake Tapawingo Quick Facts


National Two Day Weather Forecast


E-mail the Lake Tapawingo Weather Forecast

Voice your opinion or tell us about page issues...